This is the latest recevied weather packets stored in our database for station/object M0HZQ-1. If no packets are shown the sender has not sent any weather packets the latest 10 day(s).
| Time | Temp. | Humidity | Pressure | Rain* | Wind** | Luminosity | Snow |
|---|---|---|---|---|---|---|---|
| 1777871024 | 15° C | 65% | 1012.8 hPa | 0 mm | - | - | - |
| 1777869989 | 15° C | 65% | 1012.7 hPa | 0 mm | - | - | - |
| 1777868799 | 14.44° C | 65% | 1012.5 hPa | 0 mm | - | - | - |
| 1777867689 | 14.44° C | 64% | 1012.6 hPa | 0 mm | - | - | - |
| 1777866497 | 14.44° C | 64% | 1012.7 hPa | 0 mm | - | - | - |
| 1777865329 | 15.56° C | 62% | 1012.7 hPa | 0 mm | - | - | - |
| 1777864254 | 16.11° C | 61% | 1012.7 hPa | 0 mm | - | - | - |
| 1777863174 | 15.56° C | 61% | 1012.5 hPa | 0 mm | - | - | - |
| 1777862197 | 16.11° C | 60% | 1012.5 hPa | 0 mm | - | - | - |
| 1777861089 | 16.11° C | 59% | 1012.4 hPa | 0 mm | - | - | - |
| 1777859904 | 15.56° C | 59% | 1012.4 hPa | 0 mm | - | - | - |
| 1777858789 | 16.11° C | 58% | 1012.3 hPa | 0 mm | - | - | - |
| 1777857637 | 16.67° C | 56% | 1012.4 hPa | 0 mm | - | - | - |
| 1777856444 | 17.78° C | 54% | 1012.5 hPa | 0 mm | - | - | - |
| 1777855314 | 17.78° C | 54% | 1012.2 hPa | 0 mm | - | - | - |
| 1777854297 | 18.33° C | 54% | 1012.2 hPa | 0 mm | - | - | - |
| 1777853274 | 18.33° C | 53% | 1012.1 hPa | 0 mm | - | - | - |
| 1777852094 | 18.33° C | 53% | 1012.2 hPa | 0 mm | - | - | - |
| 1777851049 | 18.89° C | 52% | 1012.2 hPa | 0 mm | - | - | - |
| 1777850077 | 18.89° C | 52% | 1012.1 hPa | 0 mm | - | - | - |
| 1777849014 | 18.89° C | 52% | 1012 hPa | 0 mm | - | - | - |
| 1777848044 | 18.33° C | 52% | 1011.9 hPa | 0 mm | - | - | - |
| 1777846877 | 18.89° C | 51% | 1011.8 hPa | 0 mm | - | - | - |
| 1777845688 | 18.89° C | 49% | 1011.7 hPa | 0 mm | - | - | - |
| 1777844524 | 19.44° C | 48% | 1011.6 hPa | 0 mm | - | - | - |
* Rain latest hour (hover to see other rain measurements)
** Current wind speed in m/s (hover to see current wind gust speed)